Location: Shenandoah County Park
(38.9356°N, 78.4524°W)
Time: 05:21:33
(UTC-04:00)

Transit 2A - Pass Details

Date: 21 June 2024
Orbit: 591 x 960 km, 66.7° (Epoch: 23 July)

Event Time Altitude Azimuth Distance (km) Brightness Sun altitude
Rises 00:30:13 0° 339° (NNW) 3,525 10.7 -26.7°
Reaches altitude 10° 00:33:02 10° 350° (N) 2,624 9.8 -26.8°
Maximum altitude 00:38:24 30° 51° (NE) 1,632 7.9 -27.0°
Enters shadow 00:41:30 20° 94° (E) 2,036 8.0 -27.1°
